User: anonymous   Login
Location: Brunsen
(51.8651°N, 9.8610°E)
Time: 07:25:09
(UTC+00:00)
Language:

SJ 16-02 - Orbit

View from above orbital plane
View from above orbital plane
View from above satellite
View from above satellite

Ground track
Ground track

The orbit data is extracted from the following two-line orbital elements,

1 41634U 16043A   24203.17613692  .00004158  00000-0  43960-3 0  9991
2 41634  75.0020 153.0858 0009170 286.1380  73.8797 14.89441518437368
Epoch (UTC): 21 July 2024 04:13:38
Eccentricity: 0.0009170
inclination: 75.0020°
perigee height: 593 km
apogee height: 606 km
right ascension of ascending node: 153.0858°
argument of perigee: 286.1380°
revolutions per day: 14.89441518
mean anomaly at epoch: 73.8797°
orbit number at epoch: 43736

The dashed part of the orbit path shows where the satellite is in the earth's shadow,  

DLR